User: anonymous   Login
Location: Caltech
(34.1382°N, 118.1253°W)
Time: 00:44:16
(UTC-07:00)
Language:

Iridium 70 - Orbit

View from above orbital plane
View from above orbital plane
View from above satellite
View from above satellite

Ground track
Ground track

The orbit data is extracted from the following two-line orbital elements,

1 25342U 98032A   16150.22452750  .00000160  00000-0  50067-4 0  9997
2 25342  86.3982  24.7536 0002114  89.6743  29.7384 14.34215825944067
Epoch (UTC): 29 May 2016 05:23:19
Eccentricity: 0.0002114
inclination: 86.3982°
perigee height: 776 km
apogee height: 779 km
right ascension of ascending node: 24.7536°
argument of perigee: 89.6743°
revolutions per day: 14.34215825
mean anomaly at epoch: 29.7384°
orbit number at epoch: 94406

The dashed part of the orbit path shows where the satellite is in the earth's shadow,  

DLR